GEFSCGP_prec_meanprecacc_198.txt.gz
Total_Precipitation_Accumulation
0.00 0.01 0.01 0.03 0.04 0.04 0.06 0.13 0.14 0.14 0.14 0.19 0.28 0.34 0.53 0.60 0.68 0.74 0.72 0.88 1.00 1.11 1.44 1.72 2.14 2.91 3.23 3.68 3.58 3.30 3.06 2.99 2.95 2.95 3.00 2.98 3.13 3.27 3.38 3.44 3.25 3.14 3.05 3.04
0.00 0.01 0.01 0.01 0.04 0.04 0.05 0.09 0.11 0.13 0.15 0.20 0.33 0.42 0.59 0.71 0.80 0.83 0.83 0.96 0.96 1.02 1.52 1.99 2.39 2.83 3.04 3.11 3.20 3.42 3.42 3.33 3.18 3.22 3.52 3.93 4.17 4.15 4.19 4.12 4.03 3.85 3.73 3.67
0.01 0.00 0.00 0.01 0.03 0.03 0.04 0.05 0.08 0.13 0.19 0.27 0.40 0.60 0.69 0.80 0.92 0.89 0.79 0.85 0.97 1.14 1.40 1.77 2.21 2.57 2.89 3.18 3.24 3.44 3.49 3.57 3.72 3.91 4.13 4.61 4.95 4.89 4.70 4.30 4.11 3.91 3.65 3.51
0.00 0.00 0.00 0.01 0.01 0.02 0.04 0.03 0.07 0.11 0.16 0.28 0.36 0.65 0.81 0.88 0.93 0.92 0.88 0.91 1.04 1.20 1.39 1.55 1.79 2.06 2.40 2.69 2.92 3.16 3.29 3.53 3.94 4.53 4.85 5.00 5.16 5.07 4.88 4.54 4.17 3.81 3.51 3.28
0.00 0.00 0.01 0.01 0.02 0.03 0.04 0.03 0.05 0.09 0.10 0.25 0.33 0.53 0.94 1.03 1.01 1.02 1.02 1.08 1.21 1.19 1.29 1.38 1.40 1.60 1.96 2.22 2.40 2.71 3.02 3.41 3.98 4.50 4.93 5.20 5.16 4.94 4.73 4.31 3.96 3.63 3.35 3.04
0.01 0.01 0.01 0.02 0.03 0.02 0.04 0.04 0.07 0.10 0.14 0.32 0.30 0.41 0.91 1.15 1.09 0.98 0.98 1.13 1.22 1.16 1.11 1.18 1.24 1.33 1.55 1.78 2.00 2.24 2.66 3.25 3.68 4.13 4.57 4.72 4.76 4.68 4.47 4.07 3.74 3.44 3.14 2.85
0.04 0.03 0.02 0.02 0.04 0.04 0.06 0.09 0.22 0.32 0.36 0.39 0.25 0.45 0.95 1.17 1.18 1.10 1.13 1.24 1.19 1.07 1.06 1.17 1.16 1.24 1.47 1.71 1.98 2.24 2.62 3.06 3.30 3.46 3.72 3.95 4.00 3.96 3.94 3.81 3.51 3.15 2.75 2.37
0.10 0.08 0.03 0.02 0.03 0.05 0.05 0.09 0.28 0.46 0.44 0.40 0.40 0.80 1.21 1.23 1.21 1.14 1.09 1.12 1.12 1.08 1.11 1.15 1.23 1.34 1.58 1.74 1.87 2.06 2.31 2.66 2.82 2.80 2.96 3.20 3.29 3.28 3.21 3.02 2.71 2.39 2.12 1.90
0.13 0.12 0.04 0.03 0.04 0.05 0.05 0.07 0.10 0.20 0.25 0.42 0.72 1.16 1.42 1.44 1.41 1.39 1.29 1.17 1.07 1.02 1.08 1.16 1.23 1.34 1.55 1.66 1.78 1.83 1.87 2.06 2.21 2.25 2.28 2.31 2.33 2.32 2.25 2.12 1.95 1.78 1.60 1.42
0.09 0.11 0.06 0.04 0.04 0.06 0.07 0.09 0.11 0.21 0.40 0.59 0.80 1.28 1.82 1.83 1.62 1.51 1.41 1.23 1.13 1.06 1.08 1.15 1.17 1.21 1.24 1.32 1.46 1.51 1.44 1.54 1.62 1.60 1.59 1.59 1.64 1.72 1.67 1.47 1.35 1.28 1.22 1.12
0.06 0.10 0.08 0.09 0.08 0.10 0.09 0.09 0.10 0.19 0.31 0.54 0.83 1.34 1.57 1.69 1.60 1.47 1.41 1.28 1.10 1.07 1.08 1.10 1.13 1.09 1.01 0.99 1.05 1.18 1.21 1.21 1.28 1.32 1.35 1.28 1.24 1.22 1.20 1.13 1.02 0.97 0.91 0.85
0.07 0.12 0.15 0.16 0.13 0.10 0.10 0.10 0.12 0.27 0.30 0.36 0.68 1.31 1.34 1.53 1.70 1.72 1.55 1.41 1.35 1.25 1.22 1.16 1.23 1.19 1.11 1.04 1.01 1.04 1.11 1.14 1.11 1.08 1.13 1.11 1.02 0.93 0.91 0.92 0.89 0.83 0.80 0.78
0.10 0.20 0.38 0.46 0.36 0.21 0.15 0.14 0.16 0.20 0.30 0.41 0.71 1.37 1.41 1.50 1.74 1.77 1.60 1.54 1.51 1.46 1.44 1.36 1.31 1.19 1.10 1.04 0.97 0.92 0.95 0.98 0.94 0.86 0.86 0.84 0.81 0.75 0.73 0.74 0.74 0.71 0.70 0.69
0.12 0.23 0.47 0.77 0.66 0.38 0.26 0.21 0.22 0.27 0.43 0.50 0.68 1.13 1.39 1.53 1.68 1.76 1.71 1.52 1.47 1.52 1.50 1.37 1.29 1.16 1.07 1.05 1.00 0.98 0.93 0.85 0.78 0.75 0.76 0.75 0.76 0.73 0.66 0.62 0.61 0.62 0.63 0.65
0.16 0.28 0.30 0.34 0.36 0.35 0.30 0.27 0.27 0.31 0.36 0.54 0.78 1.12 1.45 1.55 1.73 1.91 1.93 1.77 1.61 1.57 1.55 1.44 1.38 1.30 1.20 1.19 1.14 1.08 0.97 0.88 0.79 0.74 0.73 0.77 0.80 0.78 0.74 0.70 0.67 0.65 0.62 0.59
0.18 0.28 0.30 0.31 0.30 0.33 0.34 0.32 0.28 0.32 0.40 0.57 0.86 1.26 1.51 1.64 1.72 1.83 1.94 1.83 1.70 1.71 1.76 1.80 1.79 1.69 1.52 1.39 1.30 1.19 1.04 0.94 0.87 0.85 0.84 0.84 0.83 0.77 0.74 0.70 0.69 0.69 0.65 0.62
0.19 0.28 0.38 0.39 0.28 0.43 0.64 0.50 0.43 0.46 0.52 0.70 0.98 1.19 1.33 1.49 1.66 1.70 1.73 1.84 1.84 1.94 2.06 2.10 2.05 1.94 1.74 1.61 1.52 1.40 1.24 1.12 1.05 1.01 0.95 0.89 0.80 0.74 0.69 0.64 0.65 0.68 0.65 0.59
0.22 0.33 0.41 0.46 0.51 0.88 0.83 0.49 0.47 0.61 0.74 0.77 0.83 0.91 1.14 1.37 1.50 1.52 1.61 1.82 1.95 1.96 1.95 1.95 1.87 1.83 1.74 1.66 1.55 1.38 1.23 1.17 1.08 1.00 0.92 0.83 0.73 0.69 0.70 0.71 0.70 0.66 0.61 0.58
0.16 0.34 0.53 0.62 0.85 0.93 0.91 0.60 0.56 0.75 0.98 0.80 0.83 0.86 1.03 1.13 1.29 1.56 1.63 1.78 1.94 1.82 1.76 1.82 1.83 1.77 1.76 1.70 1.52 1.39 1.27 1.12 1.05 0.96 0.82 0.72 0.65 0.62 0.62 0.63 0.61 0.59 0.59 0.57
0.19 0.31 0.63 0.79 1.04 1.19 1.08 0.60 0.48 0.78 1.42 1.07 0.99 1.01 1.00 1.09 1.43 1.56 1.48 1.45 1.51 1.58 1.64 1.77 1.87 1.89 1.85 1.76 1.50 1.35 1.21 1.01 0.87 0.73 0.63 0.61 0.59 0.54 0.49 0.50 0.52 0.52 0.54 0.52
0.51 0.55 0.70 0.93 1.27 1.31 0.74 0.42 0.54 1.13 1.39 1.17 1.12 1.11 1.09 1.20 1.29 1.17 1.12 1.22 1.35 1.53 1.66 1.72 1.73 1.72 1.69 1.61 1.41 1.28 1.12 0.94 0.75 0.61 0.55 0.56 0.51 0.42 0.39 0.43 0.49 0.48 0.44 0.44
0.75 0.90 0.98 1.09 1.40 1.46 0.65 0.48 0.75 0.95 0.82 0.80 0.83 0.87 0.89 0.94 0.96 1.02 1.05 1.10 1.17 1.33 1.51 1.58 1.52 1.45 1.36 1.26 1.19 1.12 0.99 0.78 0.62 0.55 0.54 0.55 0.50 0.34 0.31 0.39 0.42 0.41 0.43 0.42
0.77 0.88 1.08 1.27 1.44 1.06 0.62 0.60 0.62 0.65 0.68 0.67 0.70 0.68 0.72 0.79 0.87 0.99 1.11 1.14 1.14 1.13 1.24 1.27 1.17 1.07 1.06 1.01 0.97 0.92 0.78 0.62 0.54 0.53 0.55 0.52 0.47 0.37 0.30 0.33 0.36 0.38 0.40 0.35
0.91 0.75 0.91 1.09 1.13 0.89 0.67 0.60 0.57 0.51 0.49 0.54 0.66 0.65 0.63 0.65 0.68 0.78 0.87 0.96 1.00 0.96 0.95 0.95 0.89 0.83 0.81 0.79 0.75 0.68 0.57 0.52 0.53 0.55 0.53 0.52 0.48 0.40 0.32 0.30 0.26 0.28 0.30 0.30
0.90 0.88 1.03 1.17 1.18 1.00 0.84 0.69 0.59 0.55 0.54 0.59 0.61 0.56 0.52 0.47 0.47 0.53 0.63 0.69 0.74 0.72 0.67 0.67 0.69 0.65 0.60 0.57 0.56 0.52 0.46 0.43 0.49 0.49 0.43 0.40 0.36 0.35 0.34 0.28 0.18 0.18 0.19 0.19
0.72 0.83 1.07 1.26 1.10 1.02 0.91 0.71 0.57 0.55 0.54 0.49 0.45 0.42 0.43 0.42 0.40 0.45 0.52 0.57 0.58 0.56 0.54 0.58 0.60 0.56 0.53 0.51 0.49 0.43 0.37 0.36 0.44 0.46 0.40 0.33 0.29 0.29 0.27 0.30 0.24 0.15 0.13 0.13

GEFSCGP_prec_meanprecacc_204.txt.gz
Total_Precipitation_Accumulation
0.00 0.01 0.01 0.03 0.04 0.04 0.06 0.13 0.14 0.14 0.14 0.20 0.28 0.35 0.54 0.61 0.69 0.75 0.73 0.88 1.01 1.12 1.45 1.78 2.22 2.99 3.31 3.79 3.71 3.43 3.17 3.08 3.04 3.04 3.08 3.06 3.20 3.37 3.50 3.51 3.30 3.20 3.10 3.08
0.01 0.01 0.01 0.01 0.04 0.05 0.05 0.09 0.11 0.13 0.15 0.21 0.34 0.43 0.61 0.72 0.80 0.84 0.83 0.96 0.96 1.03 1.53 2.04 2.47 2.95 3.12 3.19 3.31 3.55 3.52 3.43 3.28 3.30 3.59 4.01 4.25 4.23 4.27 4.18 4.09 3.93 3.78 3.70
0.01 0.01 0.00 0.01 0.03 0.03 0.04 0.05 0.08 0.13 0.19 0.27 0.41 0.61 0.71 0.81 0.93 0.89 0.79 0.85 0.97 1.14 1.41 1.83 2.31 2.69 2.98 3.25 3.33 3.54 3.57 3.66 3.80 3.98 4.19 4.68 5.01 4.95 4.75 4.34 4.15 3.97 3.69 3.54
0.00 0.00 0.00 0.01 0.01 0.02 0.04 0.03 0.07 0.11 0.16 0.28 0.36 0.66 0.82 0.89 0.94 0.92 0.89 0.91 1.05 1.21 1.41 1.60 1.86 2.14 2.49 2.76 2.99 3.22 3.36 3.59 4.02 4.60 4.90 5.04 5.20 5.11 4.92 4.59 4.22 3.85 3.54 3.30
0.00 0.00 0.01 0.01 0.02 0.03 0.04 0.03 0.05 0.09 0.10 0.26 0.34 0.54 0.95 1.04 1.03 1.03 1.03 1.08 1.22 1.21 1.31 1.43 1.44 1.67 2.05 2.28 2.44 2.75 3.07 3.47 4.07 4.59 4.99 5.25 5.20 4.98 4.77 4.36 4.00 3.66 3.38 3.08
0.01 0.01 0.01 0.02 0.03 0.03 0.04 0.04 0.07 0.11 0.15 0.33 0.31 0.42 0.92 1.16 1.09 0.98 0.99 1.14 1.22 1.17 1.14 1.21 1.26 1.36 1.60 1.82 2.04 2.28 2.70 3.31 3.77 4.24 4.65 4.80 4.82 4.73 4.52 4.13 3.81 3.51 3.20 2.90
0.04 0.03 0.02 0.02 0.04 0.04 0.06 0.09 0.22 0.33 0.36 0.39 0.26 0.45 0.96 1.17 1.18 1.10 1.14 1.26 1.20 1.08 1.08 1.19 1.18 1.26 1.49 1.73 2.01 2.27 2.66 3.11 3.37 3.54 3.81 4.05 4.11 4.08 4.07 3.94 3.63 3.26 2.85 2.46
0.10 0.09 0.04 0.02 0.04 0.05 0.06 0.10 0.30 0.47 0.45 0.41 0.41 0.81 1.23 1.24 1.22 1.14 1.10 1.14 1.15 1.12 1.15 1.18 1.25 1.36 1.59 1.76 1.89 2.09 2.35 2.72 2.89 2.87 3.03 3.29 3.41 3.39 3.33 3.14 2.81 2.47 2.19 1.97
0.13 0.12 0.05 0.04 0.05 0.06 0.07 0.08 0.11 0.21 0.26 0.43 0.73 1.17 1.44 1.46 1.43 1.41 1.30 1.19 1.09 1.06 1.10 1.17 1.25 1.36 1.57 1.68 1.80 1.86 1.90 2.12 2.27 2.30 2.34 2.39 2.41 2.40 2.32 2.20 2.02 1.85 1.66 1.47
0.09 0.11 0.07 0.04 0.05 0.07 0.08 0.10 0.13 0.24 0.42 0.61 0.82 1.31 1.86 1.87 1.65 1.53 1.42 1.23 1.14 1.07 1.08 1.16 1.19 1.22 1.26 1.34 1.48 1.54 1.47 1.58 1.68 1.65 1.65 1.67 1.73 1.80 1.73 1.52 1.38 1.32 1.26 1.16
0.07 0.11 0.09 0.09 0.10 0.11 0.11 0.12 0.13 0.22 0.34 0.56 0.86 1.38 1.60 1.73 1.62 1.49 1.42 1.29 1.10 1.08 1.09 1.11 1.15 1.12 1.03 1.01 1.07 1.21 1.26 1.26 1.34 1.40 1.42 1.35 1.31 1.30 1.28 1.18 1.06 1.00 0.95 0.90
0.08 0.13 0.17 0.17 0.15 0.13 0.13 0.13 0.15 0.31 0.34 0.39 0.72 1.35 1.37 1.55 1.72 1.73 1.56 1.42 1.36 1.26 1.23 1.18 1.25 1.21 1.12 1.05 1.03 1.07 1.16 1.19 1.16 1.14 1.19 1.18 1.10 1.01 0.99 0.97 0.93 0.86 0.83 0.81
0.11 0.22 0.40 0.48 0.38 0.24 0.18 0.18 0.19 0.24 0.34 0.46 0.76 1.42 1.44 1.52 1.76 1.78 1.61 1.55 1.52 1.47 1.45 1.38 1.32 1.20 1.11 1.06 1.00 0.96 0.99 1.04 0.99 0.91 0.91 0.90 0.89 0.84 0.81 0.80 0.80 0.77 0.75 0.73
0.13 0.25 0.49 0.79 0.69 0.41 0.29 0.24 0.25 0.30 0.47 0.54 0.72 1.18 1.43 1.56 1.70 1.77 1.72 1.53 1.49 1.53 1.52 1.39 1.30 1.18 1.09 1.08 1.04 1.02 0.97 0.89 0.83 0.80 0.80 0.79 0.82 0.81 0.74 0.67 0.64 0.66 0.69 0.70
0.17 0.30 0.32 0.36 0.37 0.37 0.33 0.29 0.29 0.34 0.41 0.57 0.82 1.17 1.49 1.57 1.75 1.93 1.95 1.80 1.63 1.60 1.58 1.46 1.41 1.33 1.23 1.22 1.17 1.11 1.00 0.91 0.83 0.78 0.76 0.80 0.85 0.86 0.82 0.75 0.69 0.67 0.66 0.64
0.19 0.30 0.31 0.33 0.31 0.34 0.36 0.34 0.31 0.35 0.44 0.63 0.93 1.33 1.57 1.67 1.74 1.86 1.96 1.86 1.74 1.75 1.81 1.83 1.82 1.73 1.56 1.43 1.33 1.22 1.07 0.96 0.89 0.88 0.87 0.88 0.87 0.83 0.79 0.74 0.70 0.70 0.67 0.64
0.20 0.29 0.40 0.40 0.29 0.45 0.68 0.53 0.46 0.49 0.57 0.76 1.06 1.26 1.38 1.53 1.70 1.75 1.78 1.88 1.90 2.01 2.13 2.15 2.10 1.98 1.78 1.66 1.56 1.44 1.27 1.14 1.07 1.03 0.98 0.92 0.84 0.77 0.72 0.65 0.66 0.69 0.66 0.61
0.23 0.34 0.43 0.48 0.54 0.92 0.86 0.50 0.49 0.64 0.77 0.81 0.88 0.97 1.19 1.41 1.55 1.57 1.67 1.88 2.03 2.05 2.01 2.01 1.95 1.92 1.81 1.71 1.58 1.41 1.26 1.19 1.10 1.02 0.94 0.86 0.76 0.72 0.72 0.72 0.71 0.68 0.63 0.59
0.16 0.35 0.54 0.64 0.88 0.98 0.94 0.61 0.57 0.79 1.02 0.83 0.87 0.92 1.08 1.18 1.34 1.62 1.69 1.84 2.02 1.90 1.81 1.87 1.91 1.90 1.85 1.75 1.55 1.41 1.29 1.14 1.07 0.98 0.83 0.73 0.67 0.64 0.63 0.64 0.63 0.60 0.60 0.58
0.19 0.32 0.64 0.81 1.07 1.25 1.13 0.62 0.49 0.82 1.48 1.10 1.03 1.06 1.05 1.14 1.48 1.61 1.53 1.50 1.56 1.61 1.68 1.82 1.95 1.99 1.92 1.80 1.52 1.36 1.23 1.03 0.88 0.74 0.64 0.62 0.62 0.55 0.51 0.51 0.53 0.53 0.55 0.53
0.54 0.57 0.72 0.96 1.30 1.34 0.77 0.44 0.56 1.18 1.45 1.20 1.15 1.14 1.14 1.26 1.34 1.22 1.15 1.25 1.38 1.55 1.68 1.75 1.76 1.77 1.74 1.65 1.44 1.29 1.13 0.95 0.76 0.62 0.56 0.58 0.54 0.44 0.40 0.44 0.50 0.49 0.45 0.45
0.81 0.94 1.00 1.12 1.43 1.49 0.67 0.50 0.78 0.98 0.84 0.83 0.86 0.90 0.94 0.99 1.01 1.06 1.08 1.12 1.19 1.35 1.54 1.60 1.55 1.49 1.40 1.31 1.21 1.13 1.00 0.78 0.62 0.56 0.54 0.56 0.53 0.36 0.32 0.41 0.44 0.43 0.45 0.45
0.81 0.93 1.11 1.30 1.48 1.09 0.64 0.62 0.64 0.67 0.71 0.69 0.72 0.71 0.74 0.82 0.90 1.02 1.13 1.16 1.17 1.17 1.27 1.30 1.21 1.12 1.09 1.04 0.99 0.93 0.79 0.63 0.54 0.54 0.57 0.55 0.51 0.40 0.32 0.35 0.38 0.40 0.43 0.39
0.94 0.79 0.97 1.14 1.16 0.90 0.68 0.61 0.58 0.52 0.51 0.57 0.69 0.68 0.65 0.67 0.69 0.80 0.89 0.98 1.02 1.00 0.98 0.98 0.93 0.87 0.83 0.81 0.77 0.69 0.58 0.53 0.54 0.57 0.56 0.55 0.50 0.42 0.34 0.32 0.28 0.30 0.33 0.32
0.92 0.91 1.07 1.21 1.20 1.01 0.85 0.70 0.60 0.56 0.55 0.61 0.63 0.57 0.54 0.49 0.49 0.54 0.65 0.71 0.76 0.75 0.70 0.69 0.73 0.70 0.62 0.58 0.57 0.53 0.47 0.44 0.50 0.50 0.46 0.43 0.38 0.37 0.35 0.29 0.20 0.19 0.20 0.20
0.75 0.87 1.12 1.30 1.13 1.04 0.92 0.72 0.59 0.56 0.55 0.51 0.46 0.43 0.44 0.43 0.41 0.46 0.54 0.59 0.60 0.59 0.57 0.60 0.64 0.61 0.55 0.52 0.50 0.44 0.38 0.36 0.44 0.47 0.42 0.36 0.31 0.30 0.28 0.32 0.25 0.16 0.14 0.14

GEFSCGP_prec_meanprecacc_210.txt.gz
Total_Precipitation_Accumulation
0.00 0.01 0.02 0.03 0.05 0.05 0.06 0.14 0.16 0.16 0.15 0.20 0.29 0.36 0.56 0.64 0.72 0.77 0.74 0.90 1.04 1.15 1.49 1.82 2.26 3.03 3.37 3.85 3.78 3.50 3.24 3.15 3.10 3.11 3.16 3.16 3.29 3.44 3.56 3.56 3.34 3.23 3.13 3.12
0.01 0.01 0.01 0.01 0.05 0.05 0.05 0.10 0.12 0.15 0.17 0.22 0.35 0.44 0.64 0.77 0.84 0.87 0.85 0.99 0.99 1.06 1.60 2.14 2.53 2.99 3.18 3.27 3.39 3.64 3.63 3.53 3.37 3.39 3.68 4.09 4.33 4.30 4.32 4.23 4.15 3.98 3.82 3.74
0.01 0.01 0.01 0.02 0.03 0.03 0.04 0.06 0.09 0.15 0.21 0.28 0.42 0.65 0.76 0.86 0.99 0.92 0.82 0.88 0.99 1.16 1.49 1.96 2.37 2.73 3.05 3.34 3.43 3.63 3.67 3.76 3.91 4.09 4.28 4.75 5.07 5.01 4.81 4.39 4.21 4.02 3.75 3.60
0.00 0.00 0.01 0.02 0.02 0.03 0.04 0.04 0.08 0.13 0.18 0.30 0.38 0.70 0.89 0.97 1.04 0.98 0.92 0.94 1.06 1.23 1.46 1.66 1.92 2.22 2.58 2.86 3.11 3.32 3.44 3.66 4.10 4.70 5.02 5.13 5.28 5.18 4.98 4.64 4.28 3.92 3.60 3.37
0.00 0.00 0.01 0.01 0.02 0.03 0.04 0.03 0.06 0.10 0.12 0.29 0.36 0.59 1.04 1.14 1.10 1.09 1.05 1.10 1.24 1.24 1.37 1.48 1.47 1.73 2.14 2.38 2.54 2.83 3.14 3.54 4.14 4.67 5.09 5.35 5.28 5.04 4.82 4.40 4.05 3.71 3.43 3.13
0.01 0.01 0.02 0.03 0.03 0.03 0.04 0.04 0.07 0.11 0.18 0.38 0.34 0.48 1.04 1.29 1.18 1.03 1.03 1.15 1.24 1.21 1.22 1.27 1.29 1.40 1.66 1.89 2.11 2.36 2.77 3.41 3.87 4.32 4.74 4.87 4.89 4.79 4.56 4.16 3.83 3.53 3.24 2.94
0.04 0.03 0.02 0.03 0.04 0.04 0.06 0.11 0.27 0.39 0.45 0.45 0.29 0.54 1.09 1.32 1.31 1.21 1.19 1.29 1.22 1.11 1.13 1.27 1.25 1.31 1.55 1.79 2.06 2.34 2.75 3.23 3.54 3.69 3.91 4.13 4.18 4.14 4.12 3.98 3.67 3.30 2.88 2.49
0.11 0.09 0.04 0.02 0.04 0.06 0.06 0.12 0.35 0.55 0.51 0.46 0.45 0.90 1.33 1.31 1.30 1.26 1.19 1.20 1.18 1.15 1.20 1.26 1.34 1.43 1.65 1.82 1.96 2.17 2.44 2.82 3.01 3.02 3.16 3.38 3.47 3.45 3.38 3.18 2.84 2.51 2.23 2.01
0.14 0.13 0.05 0.04 0.05 0.06 0.08 0.11 0.14 0.28 0.32 0.51 0.80 1.27 1.59 1.60 1.54 1.48 1.35 1.23 1.15 1.12 1.17 1.25 1.32 1.44 1.64 1.76 1.89 1.94 1.98 2.19 2.35 2.40 2.45 2.46 2.46 2.45 2.37 2.25 2.07 1.89 1.70 1.51
0.09 0.12 0.07 0.05 0.06 0.08 0.11 0.13 0.16 0.29 0.49 0.69 0.91 1.41 2.02 2.05 1.78 1.60 1.47 1.28 1.19 1.12 1.14 1.22 1.27 1.30 1.31 1.39 1.54 1.61 1.54 1.65 1.73 1.70 1.71 1.72 1.77 1.86 1.80 1.58 1.47 1.41 1.33 1.21
0.08 0.12 0.10 0.10 0.11 0.13 0.15 0.16 0.17 0.27 0.40 0.66 0.99 1.54 1.76 1.89 1.75 1.57 1.47 1.33 1.15 1.12 1.14 1.17 1.22 1.19 1.08 1.05 1.11 1.26 1.31 1.29 1.36 1.42 1.46 1.38 1.36 1.36 1.36 1.29 1.17 1.12 1.04 0.97
0.10 0.15 0.19 0.18 0.16 0.14 0.16 0.17 0.20 0.37 0.43 0.52 0.89 1.57 1.52 1.69 1.81 1.80 1.61 1.46 1.40 1.31 1.30 1.25 1.31 1.27 1.16 1.09 1.06 1.11 1.19 1.21 1.18 1.16 1.21 1.21 1.14 1.06 1.05 1.05 1.00 0.93 0.90 0.87
0.13 0.24 0.43 0.50 0.40 0.25 0.21 0.21 0.23 0.29 0.42 0.57 0.92 1.62 1.59 1.63 1.85 1.84 1.65 1.59 1.57 1.53 1.52 1.44 1.38 1.26 1.16 1.11 1.04 0.99 1.02 1.06 1.02 0.93 0.93 0.94 0.94 0.89 0.87 0.88 0.89 0.84 0.81 0.79
0.14 0.27 0.53 0.84 0.74 0.45 0.35 0.29 0.28 0.35 0.55 0.65 0.84 1.30 1.53 1.63 1.79 1.85 1.76 1.57 1.52 1.56 1.57 1.45 1.37 1.25 1.17 1.13 1.08 1.05 1.00 0.91 0.86 0.82 0.83 0.82 0.86 0.88 0.83 0.77 0.74 0.73 0.74 0.74
0.18 0.34 0.36 0.38 0.40 0.40 0.37 0.33 0.33 0.40 0.46 0.66 0.89 1.23 1.57 1.63 1.80 2.00 2.00 1.84 1.67 1.64 1.64 1.53 1.46 1.39 1.30 1.27 1.21 1.15 1.04 0.94 0.86 0.81 0.79 0.83 0.88 0.91 0.88 0.84 0.78 0.73 0.70 0.67
0.21 0.35 0.38 0.35 0.33 0.36 0.39 0.38 0.34 0.38 0.48 0.68 1.00 1.42 1.62 1.71 1.77 1.91 2.01 1.90 1.79 1.80 1.87 1.89 1.87 1.78 1.62 1.48 1.39 1.27 1.11 1.00 0.93 0.91 0.89 0.90 0.90 0.86 0.84 0.80 0.76 0.73 0.69 0.66
0.22 0.34 0.47 0.43 0.30 0.48 0.72 0.57 0.49 0.53 0.62 0.80 1.12 1.34 1.43 1.56 1.73 1.79 1.84 1.95 1.95 2.05 2.18 2.22 2.17 2.05 1.85 1.73 1.63 1.50 1.31 1.16 1.10 1.05 0.99 0.94 0.88 0.79 0.74 0.68 0.69 0.71 0.68 0.63
0.25 0.37 0.47 0.52 0.56 0.98 0.91 0.55 0.53 0.68 0.81 0.85 0.91 1.01 1.23 1.46 1.59 1.63 1.74 1.96 2.08 2.11 2.07 2.09 2.04 2.01 1.89 1.78 1.65 1.48 1.31 1.23 1.14 1.05 0.97 0.89 0.81 0.75 0.74 0.73 0.73 0.70 0.66 0.60
0.17 0.36 0.57 0.68 0.93 1.03 0.98 0.65 0.64 0.84 1.07 0.87 0.91 0.96 1.13 1.22 1.40 1.70 1.76 1.90 2.09 1.97 1.87 1.94 2.00 1.98 1.92 1.81 1.60 1.46 1.33 1.18 1.11 1.01 0.86 0.76 0.71 0.67 0.65 0.66 0.66 0.64 0.62 0.60
0.20 0.33 0.67 0.85 1.13 1.32 1.21 0.69 0.54 0.87 1.56 1.15 1.07 1.10 1.10 1.19 1.55 1.69 1.59 1.55 1.64 1.68 1.74 1.88 2.01 2.07 1.99 1.87 1.57 1.41 1.27 1.07 0.92 0.77 0.67 0.65 0.65 0.59 0.55 0.54 0.56 0.57 0.58 0.57
0.57 0.59 0.74 0.99 1.35 1.44 0.85 0.52 0.61 1.25 1.54 1.25 1.19 1.18 1.19 1.31 1.40 1.28 1.21 1.30 1.44 1.61 1.74 1.81 1.84 1.84 1.81 1.71 1.49 1.36 1.19 0.99 0.79 0.65 0.58 0.61 0.57 0.48 0.44 0.48 0.54 0.52 0.49 0.50
0.85 0.97 1.03 1.16 1.49 1.57 0.72 0.54 0.83 1.05 0.89 0.86 0.88 0.93 0.98 1.02 1.03 1.09 1.11 1.15 1.24 1.41 1.58 1.66 1.65 1.63 1.53 1.42 1.30 1.21 1.07 0.83 0.65 0.59 0.57 0.59 0.56 0.39 0.35 0.44 0.47 0.46 0.50 0.49
0.85 0.97 1.15 1.34 1.53 1.14 0.68 0.65 0.66 0.69 0.73 0.71 0.75 0.73 0.77 0.84 0.92 1.04 1.15 1.19 1.22 1.22 1.32 1.36 1.29 1.20 1.18 1.15 1.07 0.99 0.84 0.67 0.57 0.56 0.60 0.58 0.53 0.42 0.34 0.38 0.41 0.43 0.46 0.42
0.97 0.81 0.99 1.17 1.19 0.93 0.69 0.62 0.59 0.53 0.52 0.57 0.70 0.70 0.67 0.68 0.71 0.82 0.90 1.00 1.07 1.04 1.03 1.04 1.01 0.93 0.90 0.90 0.85 0.75 0.61 0.55 0.56 0.59 0.59 0.57 0.52 0.43 0.36 0.34 0.31 0.33 0.35 0.34
0.95 0.94 1.12 1.24 1.23 1.04 0.86 0.71 0.61 0.56 0.56 0.61 0.64 0.59 0.54 0.50 0.51 0.56 0.67 0.75 0.81 0.79 0.74 0.74 0.78 0.75 0.67 0.65 0.65 0.59 0.50 0.46 0.53 0.53 0.49 0.46 0.40 0.39 0.38 0.31 0.21 0.21 0.22 0.21
0.78 0.90 1.16 1.34 1.15 1.07 0.94 0.73 0.59 0.57 0.56 0.52 0.47 0.44 0.45 0.45 0.44 0.48 0.57 0.63 0.66 0.64 0.61 0.64 0.68 0.65 0.59 0.57 0.55 0.49 0.41 0.39 0.47 0.49 0.46 0.40 0.35 0.34 0.31 0.33 0.26 0.17 0.15 0.14

GEFSCGP_prec_meanprecacc_216.txt.gz
Total_Precipitation_Accumulation
0.00 0.01 0.02 0.03 0.05 0.05 0.07 0.15 0.18 0.18 0.17 0.22 0.31 0.39 0.59 0.67 0.76 0.83 0.81 0.96 1.08 1.19 1.54 1.88 2.34 3.14 3.47 3.96 3.90 3.60 3.38 3.28 3.23 3.20 3.22 3.22 3.37 3.56 3.65 3.61 3.40 3.29 3.18 3.18
0.01 0.01 0.01 0.02 0.05 0.05 0.06 0.10 0.13 0.17 0.19 0.25 0.38 0.48 0.67 0.80 0.88 0.93 0.91 1.05 1.05 1.12 1.67 2.23 2.61 3.05 3.25 3.35 3.52 3.78 3.77 3.69 3.50 3.49 3.77 4.18 4.42 4.39 4.40 4.29 4.20 4.03 3.88 3.79
0.01 0.01 0.01 0.02 0.03 0.03 0.04 0.06 0.09 0.17 0.23 0.31 0.46 0.70 0.81 0.90 1.07 1.04 0.93 0.96 1.05 1.21 1.55 2.06 2.52 2.80 3.14 3.45 3.56 3.78 3.83 3.91 4.07 4.24 4.41 4.85 5.15 5.07 4.87 4.44 4.25 4.07 3.79 3.64
0.00 0.00 0.01 0.02 0.02 0.03 0.04 0.04 0.09 0.14 0.20 0.33 0.41 0.74 0.95 1.03 1.13 1.19 1.14 1.07 1.15 1.31 1.54 1.80 2.15 2.36 2.69 2.97 3.23 3.47 3.60 3.82 4.27 4.90 5.18 5.23 5.35 5.23 5.03 4.67 4.31 3.95 3.63 3.39
0.01 0.00 0.01 0.01 0.02 0.03 0.04 0.04 0.06 0.11 0.13 0.31 0.38 0.63 1.10 1.21 1.23 1.29 1.29 1.26 1.35 1.35 1.47 1.59 1.61 1.86 2.27 2.50 2.69 2.98 3.29 3.73 4.40 4.94 5.27 5.47 5.38 5.13 4.90 4.46 4.07 3.74 3.46 3.14
0.01 0.02 0.02 0.03 0.03 0.03 0.04 0.05 0.08 0.12 0.19 0.41 0.37 0.52 1.09 1.37 1.29 1.23 1.26 1.32 1.37 1.32 1.32 1.38 1.41 1.54 1.78 2.03 2.28 2.52 2.97 3.63 4.05 4.46 4.86 4.99 5.00 4.90 4.65 4.22 3.87 3.57 3.26 2.96
0.05 0.04 0.03 0.03 0.04 0.04 0.07 0.11 0.29 0.42 0.49 0.49 0.34 0.60 1.19 1.44 1.46 1.37 1.38 1.52 1.41 1.23 1.24 1.39 1.38 1.46 1.68 1.92 2.26 2.53 2.91 3.40 3.68 3.80 4.02 4.25 4.31 4.24 4.19 4.03 3.70 3.34 2.91 2.51
0.11 0.09 0.04 0.03 0.05 0.07 0.07 0.12 0.37 0.59 0.57 0.53 0.53 1.01 1.48 1.47 1.44 1.37 1.33 1.40 1.42 1.35 1.39 1.42 1.47 1.58 1.81 1.95 2.09 2.30 2.59 3.03 3.20 3.14 3.26 3.47 3.59 3.58 3.47 3.24 2.88 2.55 2.27 2.04
0.15 0.13 0.05 0.04 0.06 0.07 0.10 0.12 0.16 0.31 0.37 0.56 0.89 1.41 1.76 1.78 1.70 1.59 1.46 1.37 1.37 1.35 1.39 1.45 1.47 1.55 1.75 1.87 1.99 2.04 2.11 2.41 2.59 2.56 2.60 2.57 2.54 2.55 2.48 2.33 2.14 1.94 1.74 1.55
0.10 0.13 0.08 0.06 0.07 0.10 0.12 0.15 0.19 0.34 0.55 0.76 1.01 1.55 2.18 2.22 2.00 1.76 1.60 1.38 1.36 1.28 1.27 1.35 1.43 1.43 1.41 1.47 1.61 1.68 1.64 1.76 1.83 1.77 1.80 1.82 1.85 1.93 1.88 1.68 1.57 1.50 1.40 1.27
0.08 0.13 0.12 0.12 0.13 0.17 0.17 0.18 0.20 0.30 0.45 0.71 1.06 1.64 1.93 2.09 1.96 1.76 1.60 1.43 1.26 1.21 1.22 1.26 1.34 1.32 1.20 1.13 1.17 1.32 1.36 1.33 1.40 1.47 1.50 1.43 1.40 1.39 1.39 1.33 1.22 1.20 1.14 1.05
0.13 0.18 0.21 0.20 0.17 0.16 0.19 0.19 0.22 0.40 0.46 0.55 0.95 1.68 1.78 2.01 2.02 1.91 1.73 1.57 1.50 1.39 1.36 1.32 1.43 1.35 1.24 1.17 1.13 1.16 1.23 1.24 1.21 1.18 1.24 1.25 1.18 1.08 1.08 1.07 1.03 0.99 0.98 0.94
0.15 0.27 0.45 0.52 0.42 0.27 0.23 0.23 0.25 0.31 0.44 0.60 1.02 1.77 1.78 1.83 1.94 1.89 1.71 1.66 1.64 1.60 1.61 1.54 1.47 1.33 1.26 1.25 1.17 1.06 1.07 1.09 1.03 0.94 0.95 0.97 0.97 0.91 0.89 0.91 0.91 0.88 0.87 0.84
0.17 0.31 0.55 0.86 0.76 0.46 0.36 0.30 0.30 0.37 0.58 0.69 0.91 1.36 1.63 1.72 1.84 1.89 1.81 1.66 1.60 1.63 1.64 1.54 1.46 1.34 1.25 1.22 1.16 1.12 1.06 0.96 0.88 0.83 0.84 0.84 0.88 0.90 0.86 0.79 0.77 0.77 0.78 0.78
0.24 0.39 0.39 0.41 0.42 0.42 0.39 0.36 0.36 0.42 0.49 0.71 0.94 1.29 1.64 1.69 1.85 2.07 2.06 1.90 1.75 1.71 1.72 1.62 1.54 1.46 1.38 1.33 1.26 1.21 1.11 1.00 0.88 0.82 0.80 0.84 0.90 0.92 0.90 0.86 0.81 0.76 0.73 0.70
0.27 0.39 0.40 0.37 0.34 0.38 0.41 0.43 0.39 0.43 0.52 0.74 1.05 1.47 1.69 1.77 1.84 1.98 2.09 1.98 1.86 1.86 1.92 1.94 1.92 1.83 1.67 1.54 1.44 1.33 1.18 1.05 0.96 0.93 0.90 0.91 0.91 0.87 0.86 0.83 0.80 0.79 0.74 0.71
0.26 0.38 0.50 0.46 0.33 0.52 0.77 0.61 0.55 0.59 0.69 0.87 1.18 1.40 1.47 1.59 1.78 1.85 1.91 2.01 2.00 2.09 2.22 2.26 2.21 2.09 1.90 1.78 1.68 1.55 1.36 1.20 1.13 1.07 1.01 0.95 0.89 0.80 0.76 0.71 0.70 0.74 0.73 0.68
0.28 0.40 0.50 0.55 0.61 1.06 0.98 0.60 0.58 0.73 0.87 0.92 0.99 1.05 1.27 1.49 1.63 1.67 1.80 2.02 2.14 2.16 2.11 2.12 2.08 2.06 1.96 1.84 1.70 1.55 1.37 1.27 1.16 1.07 0.98 0.90 0.82 0.76 0.76 0.75 0.74 0.72 0.69 0.64
0.19 0.38 0.60 0.72 1.01 1.12 1.04 0.71 0.70 0.88 1.14 0.96 0.99 1.00 1.15 1.24 1.42 1.74 1.81 1.94 2.15 2.04 1.92 1.98 2.04 2.04 1.98 1.88 1.67 1.53 1.40 1.23 1.15 1.05 0.88 0.79 0.73 0.69 0.68 0.68 0.68 0.66 0.65 0.63
0.23 0.36 0.71 0.92 1.23 1.43 1.28 0.74 0.61 0.93 1.67 1.27 1.16 1.15 1.13 1.22 1.58 1.74 1.63 1.59 1.68 1.74 1.79 1.92 2.05 2.10 2.03 1.92 1.63 1.47 1.32 1.11 0.97 0.82 0.71 0.69 0.69 0.64 0.58 0.58 0.59 0.60 0.62 0.61
0.60 0.62 0.76 1.02 1.42 1.53 0.93 0.57 0.68 1.33 1.69 1.36 1.28 1.23 1.23 1.34 1.44 1.33 1.25 1.34 1.49 1.66 1.79 1.85 1.88 1.87 1.85 1.77 1.55 1.41 1.26 1.06 0.84 0.68 0.62 0.65 0.62 0.53 0.49 0.53 0.57 0.56 0.53 0.54
0.88 0.99 1.05 1.19 1.55 1.65 0.77 0.62 0.92 1.11 0.95 0.90 0.93 0.96 1.00 1.04 1.05 1.12 1.15 1.19 1.29 1.46 1.64 1.70 1.71 1.70 1.59 1.49 1.36 1.26 1.13 0.90 0.72 0.63 0.61 0.63 0.60 0.42 0.37 0.46 0.49 0.48 0.51 0.50
0.88 0.99 1.17 1.36 1.59 1.22 0.73 0.70 0.71 0.72 0.75 0.73 0.78 0.76 0.79 0.86 0.93 1.07 1.18 1.22 1.26 1.26 1.37 1.40 1.32 1.23 1.22 1.20 1.12 1.02 0.89 0.73 0.63 0.59 0.61 0.60 0.54 0.43 0.35 0.39 0.43 0.44 0.47 0.44
0.99 0.82 1.01 1.20 1.25 0.99 0.73 0.66 0.62 0.55 0.53 0.59 0.72 0.74 0.70 0.70 0.72 0.84 0.93 1.02 1.09 1.08 1.08 1.08 1.04 0.95 0.92 0.93 0.88 0.78 0.65 0.60 0.60 0.61 0.60 0.58 0.53 0.44 0.36 0.36 0.32 0.34 0.37 0.36
0.99 0.97 1.13 1.29 1.29 1.08 0.89 0.73 0.62 0.57 0.57 0.62 0.65 0.61 0.56 0.52 0.53 0.57 0.68 0.76 0.83 0.82 0.78 0.77 0.81 0.77 0.69 0.68 0.68 0.63 0.55 0.52 0.59 0.57 0.51 0.48 0.42 0.40 0.39 0.32 0.22 0.21 0.23 0.22
0.84 0.95 1.20 1.37 1.18 1.10 0.97 0.75 0.60 0.57 0.56 0.52 0.49 0.45 0.47 0.46 0.46 0.49 0.57 0.64 0.68 0.66 0.64 0.66 0.70 0.66 0.61 0.59 0.57 0.52 0.44 0.43 0.52 0.54 0.49 0.43 0.37 0.36 0.33 0.34 0.26 0.17 0.15 0.14

GEFSCGP_prec_meanprecacc_222.txt.gz
Total_Precipitation_Accumulation
0.00 0.01 0.02 0.03 0.05 0.05 0.07 0.15 0.18 0.18 0.18 0.23 0.32 0.41 0.61 0.69 0.79 0.87 0.85 1.00 1.12 1.25 1.60 1.95 2.42 3.24 3.59 4.12 4.02 3.70 3.48 3.39 3.34 3.32 3.35 3.36 3.51 3.70 3.77 3.70 3.48 3.38 3.26 3.23
0.01 0.01 0.01 0.02 0.05 0.05 0.06 0.10 0.13 0.18 0.23 0.28 0.41 0.50 0.69 0.81 0.89 0.95 0.93 1.08 1.10 1.17 1.72 2.30 2.71 3.14 3.36 3.46 3.60 3.85 3.87 3.80 3.62 3.60 3.90 4.33 4.57 4.53 4.54 4.42 4.30 4.12 3.96 3.85
0.01 0.01 0.01 0.02 0.03 0.03 0.04 0.06 0.09 0.18 0.26 0.36 0.51 0.72 0.83 0.92 1.08 1.06 0.96 1.00 1.09 1.25 1.60 2.13 2.60 2.88 3.23 3.53 3.64 3.88 3.95 4.04 4.18 4.40 4.61 5.05 5.34 5.24 5.02 4.59 4.37 4.17 3.88 3.71
0.00 0.00 0.01 0.02 0.02 0.03 0.05 0.04 0.09 0.14 0.21 0.36 0.49 0.80 0.98 1.06 1.15 1.21 1.17 1.11 1.19 1.36 1.60 1.89 2.25 2.45 2.77 3.05 3.33 3.59 3.76 4.00 4.43 5.10 5.48 5.51 5.56 5.39 5.15 4.77 4.40 4.04 3.71 3.46
0.01 0.00 0.01 0.01 0.02 0.03 0.04 0.04 0.06 0.11 0.13 0.33 0.43 0.66 1.12 1.23 1.25 1.30 1.32 1.30 1.39 1.41 1.55 1.68 1.70 1.95 2.35 2.58 2.79 3.12 3.52 4.02 4.65 5.21 5.53 5.72 5.59 5.28 5.02 4.56 4.15 3.80 3.52 3.20
0.01 0.02 0.02 0.03 0.03 0.03 0.04 0.05 0.08 0.12 0.19 0.42 0.38 0.54 1.11 1.39 1.32 1.25 1.29 1.36 1.41 1.38 1.39 1.46 1.50 1.64 1.90 2.14 2.37 2.61 3.12 3.86 4.30 4.69 5.05 5.18 5.19 5.04 4.75 4.32 3.96 3.64 3.32 3.00
0.05 0.04 0.03 0.03 0.04 0.04 0.07 0.11 0.29 0.43 0.50 0.50 0.35 0.61 1.22 1.47 1.49 1.40 1.41 1.57 1.45 1.27 1.29 1.46 1.46 1.55 1.77 2.02 2.37 2.64 3.04 3.56 3.89 3.99 4.18 4.42 4.46 4.37 4.31 4.13 3.80 3.43 2.99 2.57
0.11 0.10 0.04 0.03 0.05 0.07 0.07 0.13 0.38 0.59 0.58 0.55 0.55 1.04 1.52 1.51 1.48 1.42 1.37 1.45 1.47 1.39 1.43 1.48 1.53 1.63 1.86 2.01 2.14 2.37 2.69 3.18 3.39 3.30 3.39 3.60 3.73 3.70 3.60 3.35 2.98 2.64 2.33 2.09
0.15 0.14 0.06 0.05 0.07 0.07 0.10 0.12 0.17 0.32 0.38 0.58 0.92 1.44 1.81 1.85 1.79 1.66 1.51 1.42 1.40 1.38 1.44 1.49 1.50 1.57 1.78 1.92 2.04 2.09 2.18 2.52 2.75 2.69 2.71 2.67 2.67 2.68 2.62 2.46 2.23 2.00 1.78 1.59
0.10 0.13 0.08 0.06 0.08 0.10 0.12 0.15 0.20 0.35 0.56 0.78 1.04 1.60 2.25 2.30 2.07 1.83 1.64 1.41 1.39 1.32 1.31 1.38 1.45 1.47 1.44 1.50 1.67 1.76 1.73 1.83 1.93 1.86 1.92 1.96 1.97 2.04 2.00 1.78 1.62 1.52 1.42 1.30
0.09 0.14 0.12 0.13 0.14 0.17 0.18 0.19 0.21 0.31 0.46 0.72 1.08 1.67 1.98 2.14 2.03 1.80 1.63 1.45 1.28 1.23 1.25 1.28 1.37 1.38 1.27 1.19 1.23 1.40 1.44 1.39 1.46 1.53 1.58 1.54 1.49 1.46 1.44 1.35 1.24 1.22 1.16 1.08
0.13 0.18 0.22 0.21 0.18 0.17 0.19 0.20 0.23 0.40 0.46 0.55 0.96 1.72 1.83 2.09 2.12 1.96 1.75 1.60 1.53 1.41 1.39 1.35 1.46 1.38 1.29 1.26 1.22 1.24 1.29 1.29 1.27 1.24 1.29 1.30 1.23 1.12 1.10 1.09 1.05 1.01 1.00 0.96
0.16 0.27 0.46 0.53 0.43 0.28 0.23 0.23 0.25 0.31 0.44 0.61 1.06 1.84 1.88 1.95 2.02 1.93 1.73 1.68 1.68 1.63 1.63 1.56 1.50 1.37 1.31 1.32 1.24 1.13 1.12 1.14 1.10 0.99 0.99 1.01 1.00 0.94 0.92 0.93 0.95 0.92 0.89 0.85
0.18 0.31 0.55 0.88 0.77 0.47 0.37 0.31 0.30 0.37 0.58 0.70 0.95 1.43 1.71 1.79 1.88 1.93 1.83 1.67 1.62 1.65 1.66 1.57 1.49 1.39 1.31 1.29 1.21 1.17 1.11 1.01 0.93 0.87 0.87 0.87 0.90 0.92 0.88 0.82 0.81 0.81 0.81 0.81
0.26 0.40 0.40 0.42 0.44 0.43 0.40 0.36 0.36 0.44 0.50 0.72 0.96 1.32 1.70 1.75 1.91 2.10 2.09 1.92 1.76 1.73 1.73 1.64 1.57 1.51 1.44 1.39 1.31 1.25 1.15 1.05 0.93 0.88 0.84 0.87 0.92 0.95 0.93 0.90 0.85 0.80 0.77 0.74
0.29 0.41 0.42 0.38 0.36 0.40 0.42 0.44 0.41 0.45 0.55 0.76 1.07 1.51 1.74 1.83 1.88 2.01 2.11 2.00 1.87 1.87 1.94 1.95 1.94 1.85 1.71 1.59 1.48 1.35 1.21 1.08 0.99 0.97 0.94 0.95 0.94 0.90 0.88 0.86 0.83 0.81 0.77 0.73
0.28 0.40 0.52 0.47 0.34 0.53 0.80 0.63 0.58 0.64 0.74 0.91 1.21 1.43 1.51 1.64 1.83 1.88 1.94 2.04 2.02 2.11 2.24 2.28 2.22 2.11 1.93 1.81 1.71 1.57 1.38 1.22 1.16 1.12 1.04 0.98 0.91 0.83 0.79 0.74 0.72 0.75 0.75 0.70
0.30 0.42 0.51 0.56 0.63 1.10 1.02 0.62 0.61 0.77 0.92 0.96 1.01 1.07 1.29 1.53 1.66 1.70 1.84 2.07 2.19 2.20 2.13 2.15 2.11 2.08 1.98 1.87 1.73 1.57 1.40 1.30 1.20 1.11 1.02 0.93 0.84 0.78 0.77 0.77 0.76 0.73 0.71 0.66
0.19 0.38 0.61 0.74 1.02 1.14 1.07 0.73 0.74 0.92 1.18 0.99 1.00 1.01 1.16 1.26 1.43 1.77 1.85 1.99 2.21 2.08 1.95 2.01 2.06 2.05 2.00 1.90 1.70 1.55 1.43 1.27 1.19 1.09 0.92 0.82 0.76 0.70 0.69 0.70 0.69 0.67 0.68 0.65
0.23 0.37 0.72 0.93 1.25 1.45 1.31 0.77 0.64 0.96 1.71 1.30 1.18 1.16 1.14 1.23 1.61 1.76 1.65 1.65 1.74 1.79 1.83 1.95 2.06 2.11 2.04 1.93 1.64 1.49 1.35 1.16 1.01 0.85 0.73 0.71 0.71 0.65 0.60 0.59 0.60 0.60 0.63 0.63
0.60 0.63 0.79 1.05 1.46 1.55 0.96 0.60 0.70 1.37 1.75 1.41 1.30 1.25 1.24 1.35 1.46 1.36 1.28 1.40 1.55 1.73 1.83 1.87 1.89 1.89 1.87 1.80 1.58 1.43 1.29 1.10 0.88 0.71 0.64 0.66 0.63 0.54 0.50 0.55 0.59 0.56 0.54 0.55
0.88 1.01 1.08 1.21 1.57 1.67 0.79 0.63 0.93 1.14 0.98 0.94 0.95 0.97 1.01 1.06 1.07 1.14 1.17 1.22 1.32 1.49 1.66 1.71 1.72 1.71 1.62 1.52 1.40 1.29 1.15 0.93 0.76 0.66 0.63 0.65 0.62 0.43 0.39 0.48 0.51 0.50 0.53 0.52
0.90 1.02 1.19 1.38 1.62 1.26 0.76 0.73 0.72 0.74 0.77 0.75 0.80 0.78 0.81 0.87 0.94 1.07 1.19 1.24 1.28 1.27 1.38 1.41 1.33 1.24 1.23 1.21 1.13 1.04 0.91 0.76 0.66 0.62 0.63 0.61 0.55 0.45 0.38 0.43 0.46 0.48 0.51 0.48
1.01 0.84 1.03 1.21 1.28 1.02 0.77 0.69 0.65 0.57 0.55 0.61 0.74 0.75 0.70 0.71 0.73 0.84 0.93 1.03 1.11 1.09 1.09 1.10 1.05 0.96 0.92 0.93 0.88 0.79 0.66 0.61 0.61 0.63 0.61 0.60 0.55 0.46 0.38 0.39 0.37 0.40 0.43 0.42
1.00 0.98 1.15 1.30 1.31 1.11 0.91 0.75 0.65 0.59 0.58 0.63 0.66 0.62 0.57 0.53 0.53 0.57 0.68 0.77 0.84 0.83 0.79 0.79 0.83 0.78 0.71 0.68 0.68 0.64 0.55 0.53 0.61 0.60 0.54 0.51 0.45 0.43 0.41 0.33 0.24 0.24 0.26 0.25
0.85 0.97 1.22 1.39 1.19 1.11 0.98 0.76 0.61 0.59 0.58 0.54 0.50 0.46 0.48 0.47 0.46 0.49 0.58 0.65 0.68 0.67 0.65 0.68 0.71 0.68 0.64 0.61 0.58 0.52 0.45 0.44 0.53 0.57 0.54 0.47 0.40 0.39 0.36 0.36 0.28 0.19 0.16 0.15

GEFSCGP_prec_meanprecacc_228.txt.gz
Total_Precipitation_Accumulation
0.00 0.01 0.02 0.03 0.05 0.05 0.07 0.16 0.19 0.20 0.22 0.26 0.34 0.43 0.62 0.71 0.81 0.89 0.88 1.03 1.15 1.27 1.63 1.99 2.47 3.30 3.69 4.23 4.13 3.82 3.55 3.44 3.40 3.38 3.41 3.44 3.58 3.76 3.85 3.79 3.58 3.48 3.35 3.31
0.01 0.01 0.01 0.02 0.05 0.05 0.06 0.10 0.14 0.21 0.27 0.29 0.42 0.52 0.70 0.83 0.91 0.96 0.95 1.11 1.12 1.18 1.74 2.34 2.78 3.23 3.45 3.54 3.70 3.93 3.92 3.85 3.66 3.64 3.94 4.39 4.62 4.60 4.61 4.50 4.39 4.22 4.06 3.96
0.01 0.01 0.01 0.02 0.03 0.03 0.04 0.06 0.10 0.19 0.28 0.37 0.54 0.75 0.84 0.93 1.09 1.06 0.97 1.02 1.12 1.27 1.62 2.18 2.68 2.96 3.30 3.61 3.70 3.91 3.98 4.09 4.24 4.44 4.66 5.10 5.41 5.31 5.08 4.64 4.44 4.24 3.96 3.81
0.00 0.00 0.01 0.02 0.02 0.03 0.05 0.04 0.09 0.15 0.22 0.37 0.51 0.83 0.99 1.07 1.17 1.22 1.18 1.14 1.21 1.38 1.63 1.92 2.29 2.50 2.81 3.08 3.36 3.61 3.79 4.03 4.50 5.16 5.52 5.55 5.61 5.44 5.20 4.83 4.45 4.11 3.80 3.55
0.01 0.00 0.01 0.01 0.02 0.03 0.04 0.04 0.06 0.11 0.13 0.34 0.44 0.68 1.15 1.25 1.26 1.32 1.34 1.32 1.41 1.43 1.58 1.72 1.74 2.00 2.40 2.60 2.80 3.15 3.55 4.05 4.69 5.25 5.57 5.76 5.63 5.33 5.09 4.64 4.23 3.89 3.61 3.29
0.01 0.02 0.02 0.03 0.03 0.03 0.04 0.05 0.09 0.13 0.20 0.43 0.40 0.56 1.15 1.42 1.34 1.28 1.32 1.39 1.43 1.40 1.42 1.50 1.54 1.67 1.93 2.16 2.40 2.64 3.15 3.89 4.34 4.73 5.10 5.24 5.25 5.11 4.82 4.39 4.02 3.70 3.39 3.07
0.05 0.04 0.03 0.03 0.04 0.05 0.07 0.12 0.30 0.44 0.52 0.52 0.37 0.64 1.26 1.52 1.53 1.42 1.43 1.60 1.48 1.30 1.31 1.49 1.49 1.56 1.79 2.04 2.40 2.67 3.07 3.59 3.92 4.02 4.23 4.49 4.56 4.47 4.38 4.19 3.87 3.50 3.05 2.64
0.11 0.10 0.05 0.04 0.06 0.07 0.08 0.13 0.39 0.61 0.60 0.57 0.58 1.07 1.57 1.57 1.53 1.45 1.40 1.47 1.50 1.42 1.47 1.51 1.55 1.65 1.88 2.03 2.17 2.40 2.72 3.20 3.42 3.34 3.45 3.68 3.84 3.79 3.67 3.43 3.05 2.71 2.41 2.16
0.15 0.14 0.06 0.06 0.07 0.08 0.11 0.13 0.17 0.33 0.40 0.61 0.96 1.50 1.90 1.95 1.86 1.71 1.55 1.44 1.42 1.41 1.47 1.52 1.51 1.58 1.79 1.93 2.07 2.13 2.21 2.56 2.79 2.74 2.77 2.74 2.76 2.77 2.69 2.52 2.30 2.08 1.85 1.65
0.11 0.14 0.09 0.07 0.09 0.11 0.13 0.16 0.21 0.37 0.58 0.81 1.09 1.68 2.32 2.36 2.12 1.87 1.68 1.44 1.42 1.35 1.34 1.41 1.47 1.49 1.47 1.52 1.69 1.80 1.77 1.87 1.96 1.91 1.98 2.02 2.04 2.13 2.09 1.87 1.71 1.61 1.50 1.35
0.10 0.15 0.13 0.13 0.15 0.18 0.19 0.20 0.22 0.33 0.48 0.74 1.12 1.73 2.03 2.18 2.07 1.83 1.65 1.47 1.31 1.27 1.31 1.35 1.41 1.41 1.30 1.22 1.26 1.43 1.49 1.43 1.49 1.57 1.65 1.62 1.57 1.54 1.54 1.45 1.34 1.29 1.22 1.13
0.14 0.19 0.23 0.22 0.19 0.17 0.20 0.21 0.24 0.42 0.48 0.57 1.00 1.77 1.88 2.14 2.16 1.99 1.77 1.61 1.55 1.44 1.44 1.41 1.50 1.42 1.32 1.28 1.25 1.28 1.33 1.33 1.31 1.30 1.40 1.43 1.35 1.22 1.18 1.16 1.12 1.06 1.04 1.00
0.17 0.28 0.47 0.54 0.44 0.29 0.24 0.24 0.26 0.32 0.45 0.63 1.09 1.89 1.98 2.03 2.07 1.97 1.76 1.71 1.71 1.67 1.66 1.59 1.53 1.42 1.35 1.35 1.28 1.18 1.19 1.22 1.20 1.11 1.13 1.16 1.12 1.03 0.98 0.98 1.00 0.96 0.93 0.88
0.19 0.32 0.56 0.89 0.79 0.48 0.37 0.32 0.31 0.38 0.61 0.75 1.03 1.53 1.83 1.88 1.95 1.98 1.87 1.70 1.65 1.68 1.68 1.58 1.53 1.45 1.37 1.34 1.25 1.20 1.15 1.07 0.98 0.93 0.95 0.96 0.97 0.97 0.93 0.86 0.84 0.85 0.85 0.84
0.27 0.41 0.40 0.43 0.44 0.44 0.40 0.38 0.38 0.46 0.53 0.78 1.04 1.42 1.80 1.82 1.95 2.14 2.11 1.94 1.77 1.75 1.76 1.66 1.61 1.56 1.49 1.46 1.37 1.29 1.19 1.10 0.99 0.93 0.90 0.91 0.96 0.98 0.96 0.93 0.88 0.84 0.80 0.77
0.30 0.42 0.43 0.40 0.38 0.41 0.44 0.46 0.42 0.46 0.57 0.79 1.11 1.58 1.81 1.86 1.91 2.02 2.12 2.01 1.89 1.90 1.96 1.98 1.97 1.89 1.76 1.66 1.54 1.40 1.27 1.14 1.04 1.02 0.99 0.98 0.97 0.93 0.91 0.89 0.86 0.83 0.79 0.76
0.29 0.41 0.54 0.49 0.36 0.56 0.83 0.66 0.61 0.65 0.75 0.93 1.25 1.49 1.54 1.66 1.85 1.90 1.96 2.06 2.05 2.14 2.28 2.31 2.26 2.15 1.97 1.86 1.75 1.60 1.42 1.27 1.22 1.16 1.07 1.01 0.94 0.85 0.82 0.77 0.75 0.78 0.78 0.72
0.31 0.43 0.52 0.58 0.65 1.14 1.06 0.65 0.64 0.80 0.94 0.99 1.05 1.12 1.33 1.54 1.68 1.71 1.85 2.09 2.21 2.23 2.17 2.18 2.14 2.12 2.01 1.91 1.76 1.59 1.42 1.32 1.23 1.13 1.04 0.95 0.87 0.80 0.80 0.80 0.79 0.77 0.75 0.69
0.20 0.40 0.62 0.75 1.05 1.18 1.11 0.77 0.78 0.96 1.23 1.03 1.04 1.04 1.19 1.28 1.45 1.79 1.87 2.02 2.24 2.13 2.01 2.05 2.09 2.10 2.04 1.93 1.73 1.58 1.45 1.29 1.21 1.11 0.94 0.84 0.78 0.73 0.71 0.72 0.72 0.71 0.70 0.67
0.24 0.38 0.73 0.95 1.27 1.49 1.36 0.80 0.66 0.99 1.76 1.34 1.21 1.19 1.17 1.26 1.62 1.78 1.68 1.68 1.77 1.83 1.89 2.00 2.09 2.14 2.08 1.96 1.67 1.51 1.38 1.19 1.04 0.88 0.76 0.73 0.73 0.67 0.62 0.62 0.63 0.63 0.65 0.64
0.62 0.64 0.80 1.07 1.48 1.59 1.00 0.62 0.72 1.41 1.79 1.45 1.32 1.27 1.26 1.37 1.48 1.37 1.31 1.44 1.58 1.75 1.87 1.93 1.95 1.93 1.91 1.83 1.61 1.47 1.32 1.15 0.93 0.74 0.66 0.69 0.67 0.58 0.53 0.57 0.60 0.59 0.56 0.56
0.91 1.03 1.10 1.23 1.60 1.72 0.84 0.66 0.97 1.18 1.00 0.96 0.98 0.99 1.03 1.08 1.09 1.15 1.21 1.26 1.35 1.50 1.68 1.75 1.76 1.75 1.65 1.56 1.44 1.33 1.18 0.98 0.80 0.69 0.65 0.68 0.66 0.47 0.41 0.50 0.53 0.53 0.57 0.55
0.91 1.04 1.22 1.42 1.67 1.31 0.81 0.77 0.76 0.77 0.80 0.77 0.82 0.80 0.83 0.90 0.96 1.09 1.21 1.27 1.30 1.29 1.39 1.44 1.35 1.26 1.27 1.26 1.18 1.07 0.94 0.78 0.69 0.65 0.66 0.64 0.59 0.49 0.42 0.46 0.49 0.51 0.55 0.52
1.02 0.85 1.05 1.24 1.30 1.05 0.79 0.71 0.66 0.58 0.56 0.62 0.76 0.77 0.74 0.74 0.74 0.85 0.94 1.05 1.12 1.11 1.10 1.11 1.08 0.98 0.95 0.96 0.90 0.81 0.68 0.63 0.64 0.65 0.64 0.62 0.57 0.48 0.41 0.42 0.41 0.43 0.46 0.46
1.01 0.98 1.15 1.31 1.32 1.12 0.92 0.76 0.65 0.60 0.59 0.64 0.68 0.64 0.59 0.55 0.55 0.59 0.69 0.78 0.85 0.85 0.81 0.80 0.85 0.81 0.72 0.69 0.69 0.65 0.58 0.55 0.62 0.62 0.56 0.52 0.46 0.44 0.43 0.37 0.27 0.27 0.29 0.28
0.86 0.97 1.23 1.40 1.20 1.12 0.99 0.77 0.62 0.60 0.59 0.55 0.51 0.47 0.49 0.48 0.47 0.50 0.59 0.66 0.70 0.69 0.66 0.69 0.73 0.69 0.64 0.62 0.59 0.54 0.47 0.45 0.55 0.59 0.55 0.48 0.41 0.40 0.37 0.39 0.31 0.21 0.19 0.18

GEFSCGP_prec_meanprecacc_234.txt.gz
Total_Precipitation_Accumulation
0.01 0.02 0.03 0.04 0.06 0.07 0.08 0.16 0.20 0.21 0.23 0.28 0.36 0.46 0.67 0.74 0.86 0.95 0.92 1.07 1.20 1.34 1.74 2.05 2.54 3.39 3.88 4.41 4.25 3.91 3.64 3.52 3.47 3.43 3.47 3.50 3.66 3.84 3.91 3.85 3.63 3.54 3.44 3.40
0.01 0.02 0.01 0.02 0.05 0.05 0.06 0.11 0.15 0.23 0.30 0.33 0.46 0.55 0.76 0.86 0.95 1.02 1.02 1.19 1.20 1.26 1.81 2.39 2.84 3.30 3.54 3.64 3.79 4.01 3.98 3.90 3.70 3.68 3.99 4.44 4.70 4.67 4.68 4.57 4.46 4.28 4.12 4.03
0.01 0.01 0.01 0.02 0.03 0.03 0.04 0.07 0.11 0.22 0.31 0.43 0.61 0.80 0.89 0.98 1.13 1.12 1.04 1.09 1.17 1.34 1.67 2.23 2.75 3.03 3.38 3.66 3.76 3.98 4.03 4.15 4.29 4.49 4.71 5.15 5.46 5.37 5.15 4.72 4.51 4.31 4.03 3.88
0.00 0.00 0.01 0.03 0.02 0.03 0.05 0.05 0.11 0.18 0.25 0.41 0.56 0.93 1.07 1.15 1.24 1.28 1.25 1.18 1.24 1.43 1.68 2.00 2.36 2.56 2.89 3.13 3.40 3.68 3.84 4.09 4.55 5.22 5.57 5.60 5.65 5.49 5.26 4.89 4.51 4.18 3.88 3.62
0.01 0.00 0.01 0.01 0.02 0.03 0.04 0.05 0.08 0.14 0.16 0.37 0.48 0.74 1.24 1.33 1.36 1.38 1.39 1.37 1.43 1.46 1.62 1.78 1.82 2.06 2.46 2.67 2.86 3.22 3.62 4.10 4.75 5.32 5.64 5.84 5.70 5.40 5.16 4.71 4.30 3.95 3.67 3.36
0.01 0.02 0.02 0.03 0.04 0.03 0.05 0.06 0.11 0.16 0.24 0.47 0.43 0.61 1.26 1.50 1.44 1.36 1.37 1.43 1.46 1.42 1.46 1.56 1.63 1.73 1.99 2.23 2.46 2.71 3.23 3.96 4.41 4.80 5.17 5.31 5.32 5.18 4.90 4.46 4.08 3.76 3.44 3.12
0.05 0.04 0.03 0.03 0.05 0.06 0.10 0.17 0.37 0.50 0.58 0.57 0.40 0.69 1.37 1.62 1.60 1.49 1.48 1.64 1.52 1.34 1.35 1.55 1.57 1.61 1.83 2.09 2.44 2.71 3.13 3.66 3.98 4.09 4.29 4.55 4.63 4.55 4.46 4.27 3.95 3.56 3.10 2.68
0.13 0.11 0.05 0.04 0.07 0.09 0.10 0.18 0.46 0.69 0.68 0.63 0.62 1.14 1.66 1.68 1.60 1.53 1.46 1.51 1.53 1.45 1.50 1.56 1.60 1.70 1.92 2.06 2.21 2.43 2.75 3.25 3.48 3.39 3.49 3.73 3.91 3.87 3.75 3.51 3.13 2.80 2.50 2.23
0.17 0.16 0.06 0.06 0.07 0.08 0.12 0.15 0.19 0.38 0.46 0.67 1.02 1.58 1.98 2.01 1.90 1.76 1.62 1.49 1.45 1.43 1.49 1.56 1.55 1.62 1.83 1.97 2.10 2.18 2.26 2.61 2.85 2.79 2.82 2.80 2.83 2.84 2.76 2.60 2.38 2.15 1.92 1.71
0.12 0.17 0.09 0.07 0.09 0.11 0.14 0.16 0.23 0.41 0.65 0.90 1.16 1.76 2.43 2.43 2.18 1.93 1.75 1.49 1.46 1.37 1.36 1.44 1.51 1.54 1.51 1.56 1.74 1.86 1.83 1.92 2.02 1.96 2.03 2.07 2.12 2.20 2.15 1.94 1.76 1.67 1.55 1.40
0.12 0.18 0.15 0.14 0.16 0.20 0.20 0.23 0.24 0.36 0.51 0.81 1.22 1.82 2.10 2.25 2.13 1.90 1.72 1.51 1.33 1.28 1.32 1.37 1.44 1.46 1.35 1.26 1.31 1.49 1.55 1.48 1.54 1.62 1.70 1.69 1.66 1.63 1.64 1.55 1.40 1.35 1.26 1.17
0.16 0.22 0.26 0.23 0.20 0.18 0.21 0.23 0.27 0.47 0.53 0.62 1.08 1.84 1.93 2.20 2.23 2.07 1.83 1.65 1.58 1.46 1.46 1.47 1.56 1.47 1.36 1.32 1.29 1.32 1.38 1.37 1.35 1.35 1.48 1.53 1.46 1.34 1.32 1.26 1.20 1.13 1.08 1.05
0.19 0.33 0.52 0.59 0.47 0.30 0.25 0.26 0.28 0.34 0.49 0.69 1.17 1.97 2.04 2.09 2.12 2.01 1.78 1.73 1.75 1.70 1.70 1.65 1.60 1.46 1.39 1.39 1.30 1.21 1.23 1.27 1.23 1.15 1.21 1.27 1.24 1.15 1.09 1.07 1.09 1.02 0.98 0.94
0.21 0.37 0.61 0.93 0.81 0.49 0.38 0.33 0.32 0.40 0.64 0.80 1.10 1.60 1.88 1.91 1.98 2.02 1.91 1.75 1.71 1.73 1.72 1.63 1.60 1.52 1.43 1.39 1.28 1.22 1.17 1.10 1.03 0.99 1.04 1.07 1.08 1.06 1.01 0.95 0.94 0.92 0.91 0.89
0.29 0.46 0.43 0.45 0.46 0.44 0.41 0.39 0.39 0.47 0.57 0.87 1.15 1.53 1.87 1.86 1.98 2.18 2.16 1.98 1.82 1.79 1.78 1.68 1.65 1.64 1.56 1.52 1.41 1.32 1.21 1.14 1.04 1.01 0.98 1.00 1.06 1.07 1.03 1.01 0.96 0.90 0.85 0.81
0.33 0.46 0.45 0.41 0.39 0.43 0.46 0.48 0.44 0.49 0.61 0.86 1.19 1.65 1.85 1.90 1.94 2.05 2.15 2.03 1.91 1.91 1.98 2.00 2.00 1.94 1.83 1.72 1.58 1.44 1.31 1.17 1.08 1.08 1.06 1.05 1.04 0.99 0.97 0.96 0.92 0.88 0.83 0.80
0.32 0.45 0.56 0.51 0.38 0.59 0.89 0.73 0.65 0.68 0.78 0.96 1.29 1.52 1.56 1.69 1.88 1.92 1.99 2.09 2.07 2.17 2.30 2.34 2.30 2.20 2.02 1.91 1.82 1.65 1.46 1.31 1.26 1.22 1.12 1.07 0.99 0.91 0.88 0.81 0.79 0.82 0.82 0.77
0.35 0.47 0.55 0.61 0.69 1.19 1.14 0.74 0.71 0.84 0.99 1.04 1.11 1.15 1.35 1.56 1.71 1.74 1.89 2.11 2.24 2.26 2.20 2.22 2.19 2.17 2.07 1.96 1.82 1.64 1.47 1.37 1.27 1.17 1.06 0.99 0.92 0.86 0.84 0.83 0.82 0.81 0.80 0.74
0.22 0.42 0.65 0.78 1.09 1.23 1.17 0.82 0.84 1.04 1.33 1.13 1.11 1.09 1.22 1.30 1.48 1.83 1.90 2.04 2.26 2.16 2.05 2.09 2.15 2.14 2.09 1.97 1.77 1.61 1.48 1.33 1.25 1.14 0.96 0.87 0.82 0.77 0.74 0.76 0.78 0.77 0.76 0.73
0.25 0.39 0.75 0.98 1.31 1.53 1.42 0.83 0.69 1.06 1.87 1.44 1.27 1.23 1.20 1.29 1.67 1.83 1.73 1.70 1.79 1.86 1.94 2.05 2.15 2.19 2.12 2.00 1.71 1.55 1.41 1.23 1.09 0.92 0.80 0.76 0.76 0.71 0.68 0.68 0.69 0.69 0.70 0.69
0.64 0.66 0.83 1.10 1.51 1.63 1.04 0.64 0.74 1.48 1.90 1.51 1.37 1.30 1.30 1.43 1.53 1.43 1.37 1.48 1.62 1.78 1.91 1.98 2.00 1.97 1.95 1.88 1.65 1.52 1.36 1.20 0.98 0.78 0.70 0.73 0.71 0.64 0.60 0.62 0.65 0.63 0.60 0.61
0.92 1.06 1.14 1.27 1.64 1.76 0.86 0.69 1.01 1.25 1.07 1.03 1.05 1.05 1.07 1.11 1.11 1.19 1.25 1.32 1.40 1.53 1.70 1.80 1.81 1.79 1.69 1.60 1.48 1.36 1.23 1.02 0.83 0.72 0.68 0.72 0.71 0.52 0.44 0.54 0.57 0.57 0.61 0.59
0.92 1.05 1.24 1.45 1.71 1.35 0.84 0.80 0.79 0.81 0.85 0.82 0.88 0.85 0.86 0.92 0.98 1.11 1.26 1.32 1.35 1.32 1.43 1.48 1.40 1.31 1.32 1.31 1.21 1.11 1.01 0.85 0.73 0.69 0.70 0.69 0.63 0.53 0.46 0.50 0.53 0.57 0.60 0.57
1.03 0.87 1.07 1.26 1.33 1.07 0.81 0.72 0.67 0.59 0.58 0.64 0.79 0.82 0.79 0.78 0.77 0.88 0.99 1.11 1.17 1.14 1.13 1.14 1.11 1.02 0.98 0.99 0.94 0.86 0.75 0.70 0.70 0.73 0.72 0.70 0.64 0.52 0.45 0.47 0.45 0.47 0.50 0.49
1.03 1.00 1.17 1.33 1.34 1.14 0.94 0.77 0.66 0.60 0.59 0.65 0.69 0.68 0.64 0.58 0.59 0.62 0.74 0.83 0.89 0.88 0.83 0.83 0.88 0.84 0.74 0.71 0.70 0.68 0.62 0.59 0.67 0.68 0.61 0.58 0.51 0.49 0.47 0.40 0.30 0.29 0.30 0.29
0.87 0.99 1.24 1.42 1.22 1.13 1.01 0.78 0.63 0.60 0.60 0.56 0.53 0.50 0.52 0.51 0.51 0.53 0.63 0.71 0.74 0.72 0.69 0.72 0.76 0.73 0.67 0.64 0.61 0.57 0.49 0.48 0.57 0.61 0.57 0.50 0.43 0.43 0.40 0.42 0.32 0.22 0.19 0.18